Powrót do katalogu

STARLINK-37256

AktywnyŁącznośćVLEO
NORAD 68569·PAYLOAD·🇺🇸 United States

Wystrzelony Apr 2, 2026 z Cape Canaveral Space Force Station

Loading…

Następne Przeloty (najbliższe 24 godziny)

TLE

ŚwieżeSource: CelesTrak SupGP

Epoka: Sep 14, 2026, 21:34 UTC

1 68569C 26070AD  26257.89909722  .00014454  00000+0  42691-3 0  2576
2 68569  53.1592 199.5477 0001248  82.6925 238.0708 15.34393080    15

Śledź STARLINK-37256 w czasie rzeczywistym z AllMySat

Download on the App Store